STARLINK-32282, 61006

Orbit data source: Space-Track

STARLINK-32282, 61006 is a payload satellite owned by SpaceX/Seattle (US) in LEO that was launched on Thu, 05 Sep 2024 UTC via an FALCON 9 launch vehicle from the Air Force Eastern Test Range (AFETR). Payload-class satellites include a variety of spacecraft equipped with specific instruments for various scientific and technological missions. These include communications satellites like Starlink; space stations such as the ISS; scientific satellites like the Hubble; Earth observation satellites from companies like Planet Labs, Umbra, and HawkEye 360; GPS; miniature CubeSats for education and research; and military/defense satellites.

Loading next visibility...
Identifier
61006, 2024-158S
Orbit
LEO
Country
Flag of USUS
Related business
Manufacturer
SpaceX/Seattle
Mission
Operational Commercial Communications
Bus & Motor
STARLINK V2M, Unknown motor
Mass
730 kg wet, ~700 kg dry
Launch date (UTC)
2024-09-05 (1 year ago)
Launch vehicle
FALCON 9
Launch site
Air Force Eastern Test Range (AFETR)
Object type
Payload
Rocket body
Debris
Shape & HBR
Box + 2 Pan, 17.7 m
Radar Cross Section
33.884 m², Large (>1 m²)

Expand to show TLE details & history
Last TLE update: 1 day ago

TLE from 1 day ago
0 STARLINK-32282
1 61006U 24158S   26032.96884719  .00000848  00000-0  40758-4 0  9996
2 61006  53.1587 231.3510 0001073  80.6548 279.4574 15.30196868 80183
Epoch: 2026-02-01T23:15Z
TLE epoch observation values (Epoch: 2026-02-01T23:15:08.397Z)
Latitude
-0.00001°
Longitude
110.39514°
Altitude
476.003 km
Speed
7.629 km/s
True Right ascension
15h 25m 24s
True Declination
0° 00' 00"
Sunlit
Object was in daylight at epoch
Visualization orbit readout
Latitude
Unknown
Longitude
Unknown
Altitude
Unknown
Speed
Unknown
Apparent Right ascension
Unknown
Apparent Declination
Unknown
Sunlit
N/A
Visualization observer readout
Local Sidereal Time
06:35:07
Azimuth
Unknown
Elevation
Unknown
Doppler factor
Unknown
Orbital elements
Apogee altitude
476.216 km
Perigee altitude
474.746 km
Semi-major axis
6,853.618 km
Eccentricity
0.00011
Inclination
53.1587°
RAAN
231.351°
Arg. of periapsis
80.6548°
True anomaly
279.44527°
Mean anomaly
279.4574°
Eccentric anomaly
279.45134°
Mean motion
3.82528 °/min
Orbital period
94.11 mins
BSTAR
0.000040758
Loading maneuver chart data...
Computing Atmospheric mass density...
Loading historical data...
Loading historical data...
Loading historical data...
Loading historical data...
Loading historical data...
Loading historical data...
Loading historical data...

Documentation

Showing up to 5 results
|